sat.trackr.live / text

‹ back to catalog

KUIPER-00125

NORAD 65954 · 2025-228H

PAYLOAD ACTIVE UNKNOWN

§ Identity

Operator
Country
US
Launch date
2025-10-14
Launch site
AFETR
Launch vehicle
Mass (kg)
RCS (m²)

External: N2YO · Heavens-Above · Gunter

§ Orbital elements

Epoch: 2026-05-25T00:36:55.923264Z

Period
97.30 min
Inclination
51.9013°
Eccentricity
0.0000879
Mean motion
14.79938322 rev/d
Perigee alt
628.9 km
Apogee alt
630.1 km
Semi-major
7,007.7 km
B*
2.0624e-4
RAAN
3.0474°
Arg perigee
107.8426°
Mean anomaly
252.2632°
Rev number
3,481

§ Raw data

KUIPER-001251 65954U 25228H   26145.02564726  .00001352  00000+0  20624-3 0  99952 65954  51.9013   3.0474 0000879 107.8426 252.2632 14.79938322 34816

JSON: /api/v1/satellites/65954 · /tle

For live sub-satellite position, see the globe view (requires WebGL).

§ Visibility from observer

Set your observer location to see the next 7 days of passes ≥ 10°. The values pass through the URL so the page stays shareable.

No JS? Fill the form by hand. The geolocation button needs JavaScript.